LAV1506 LEMG-LEPA

Flight info

Callsign LAV1506
Flight time 1h 5m
Altitude 32000
Route RIXUR M445 LASPO/N0411F260 M871 GODOX
Aircraft B738/M-SDE2E3FGHIRWXY/LB1

Departure

Time 2026-05-07 17:14
Airport Málaga-Costa del Sol Airport (LEMG)

Arrival

Time 2026-05-07 18:19
Airport Palma de Mallorca Airport (LEPA)
Time Latitude Longitude Altitude Speed Heading
2026-05-07 16:32 36.67896 -4.49491 41 ft 0 kts 214°
2026-05-07 17:01 36.67897 -4.49491 41 ft 2 kts 214°
2026-05-07 17:01 36.67910 -4.49479 41 ft 2 kts 212°
2026-05-07 17:01 36.67924 -4.49469 41 ft 2 kts 214°
2026-05-07 17:02 36.67936 -4.49455 41 ft 2 kts 278°
2026-05-07 17:02 36.67929 -4.49437 39 ft 2 kts 311°
2026-05-07 17:02 36.67925 -4.49431 38 ft 0 kts 314°
2026-05-07 17:04 36.67935 -4.49445 41 ft 5 kts 313°
2026-05-07 17:04 36.67976 -4.49503 41 ft 15 kts 310°
2026-05-07 17:04 36.68015 -4.49607 41 ft 14 kts 243°
2026-05-07 17:05 36.67948 -4.49687 41 ft 13 kts 221°
2026-05-07 17:05 36.67881 -4.49761 41 ft 13 kts 221°
2026-05-07 17:05 36.67807 -4.49843 41 ft 15 kts 226°
2026-05-07 17:05 36.67835 -4.49955 41 ft 15 kts 311°
2026-05-07 17:06 36.67903 -4.50052 41 ft 15 kts 310°
2026-05-07 17:06 36.67892 -4.50168 43 ft 14 kts 282°
2026-05-07 17:06 36.67949 -4.50257 43 ft 13 kts 310°
2026-05-07 17:06 36.68007 -4.50339 43 ft 13 kts 311°
2026-05-07 17:07 36.68066 -4.50421 43 ft 13 kts 311°
2026-05-07 17:07 36.68127 -4.50509 43 ft 15 kts 310°
2026-05-07 17:07 36.68198 -4.50606 43 ft 17 kts 311°
2026-05-07 17:07 36.68281 -4.50723 44 ft 19 kts 312°
2026-05-07 17:08 36.68365 -4.50842 48 ft 18 kts 310°
2026-05-07 17:08 36.68446 -4.50954 50 ft 16 kts 311°
2026-05-07 17:08 36.68521 -4.51024 52 ft 13 kts 337°
2026-05-07 17:08 36.68577 -4.51103 50 ft 11 kts 277°
2026-05-07 17:09 36.68548 -4.51167 54 ft 6 kts 221°
2026-05-07 17:09 36.68539 -4.51177 53 ft 0 kts 221°
2026-05-07 17:12 36.68538 -4.51178 53 ft 2 kts 220°
2026-05-07 17:12 36.68510 -4.51201 54 ft 7 kts 207°
2026-05-07 17:12 36.68455 -4.51228 57 ft 9 kts 200°
2026-05-07 17:13 36.68404 -4.51190 60 ft 9 kts 129°
2026-05-07 17:13 36.68341 -4.51101 55 ft 31 kts 131°
2026-05-07 17:13 36.68007 -4.50632 54 ft 111 kts 131°
2026-05-07 17:13 36.67347 -4.49710 181 ft 163 kts 131°
2026-05-07 17:14 36.66608 -4.48678 1200 ft 160 kts 131°
2026-05-07 17:14 36.65836 -4.47566 1985 ft 174 kts 132°
2026-05-07 17:14 36.65009 -4.46376 2544 ft 196 kts 133°
2026-05-07 17:14 36.64046 -4.45045 2828 ft 216 kts 133°
2026-05-07 17:15 36.63009 -4.43623 3275 ft 226 kts 133°
2026-05-07 17:15 36.61941 -4.42145 3826 ft 232 kts 132°
2026-05-07 17:15 36.60859 -4.40639 4594 ft 234 kts 131°
2026-05-07 17:15 36.59931 -4.38974 5293 ft 237 kts 108°
2026-05-07 17:16 36.59557 -4.36971 6055 ft 239 kts 101°
2026-05-07 17:16 36.59224 -4.34930 6772 ft 242 kts 101°
2026-05-07 17:16 36.58882 -4.32861 7448 ft 246 kts 102°
2026-05-07 17:16 36.58530 -4.30757 8132 ft 250 kts 102°
2026-05-07 17:17 36.58186 -4.28614 8824 ft 255 kts 97°
2026-05-07 17:17 36.58180 -4.26338 9185 ft 275 kts 86°
2026-05-07 17:17 36.58388 -4.23886 9588 ft 291 kts 84°
2026-05-07 17:17 36.58629 -4.21381 10170 ft 299 kts 84°
2026-05-07 17:18 36.58863 -4.18800 10880 ft 301 kts 84°
2026-05-07 17:18 36.59079 -4.16194 11581 ft 305 kts 85°
2026-05-07 17:18 36.59284 -4.13539 12264 ft 310 kts 85°
2026-05-07 17:18 36.59485 -4.10848 12982 ft 314 kts 86°
2026-05-07 17:19 36.59732 -4.08122 13707 ft 320 kts 78°
2026-05-07 17:19 36.60609 -4.05560 14346 ft 325 kts 59°
2026-05-07 17:19 36.61797 -4.03152 15031 ft 329 kts 58°
2026-05-07 17:19 36.63013 -4.00705 15707 ft 334 kts 58°
2026-05-07 17:20 36.64268 -3.98257 16371 ft 338 kts 51°
2026-05-07 17:20 36.66021 -3.96284 16798 ft 348 kts 30°
2026-05-07 17:20 36.68177 -3.94723 16966 ft 368 kts 27°
2026-05-07 17:20 36.70475 -3.93129 17123 ft 388 kts 27°
2026-05-07 17:21 36.72846 -3.91462 17389 ft 403 kts 27°
2026-05-07 17:21 36.75297 -3.89694 17931 ft 409 kts 28°
2026-05-07 17:21 36.77761 -3.87896 18581 ft 412 kts 28°
2026-05-07 17:21 36.80250 -3.86080 19114 ft 417 kts 27°
2026-05-07 17:22 36.82769 -3.84242 19628 ft 422 kts 27°
2026-05-07 17:22 36.85327 -3.82377 20165 ft 427 kts 27°
2026-05-07 17:22 36.87909 -3.80494 20698 ft 431 kts 27°
2026-05-07 17:22 36.90514 -3.78592 21209 ft 436 kts 27°
2026-05-07 17:23 36.93146 -3.76668 21694 ft 440 kts 27°
2026-05-07 17:23 36.95804 -3.74723 22189 ft 445 kts 27°
2026-05-07 17:23 36.98486 -3.72759 22666 ft 449 kts 27°
2026-05-07 17:23 37.01164 -3.70795 23133 ft 453 kts 27°
2026-05-07 17:24 37.03892 -3.68792 23572 ft 457 kts 26°
2026-05-07 17:24 37.06648 -3.66770 23962 ft 460 kts 26°
2026-05-07 17:24 37.09423 -3.64730 24374 ft 463 kts 27°
2026-05-07 17:24 37.12074 -3.62389 24738 ft 473 kts 40°
2026-05-07 17:25 37.14351 -3.59390 25159 ft 476 kts 45°
2026-05-07 17:25 37.16598 -3.56321 25557 ft 479 kts 44°
2026-05-07 17:25 37.18891 -3.53270 25918 ft 482 kts 44°
2026-05-07 17:25 37.21231 -3.50228 26276 ft 485 kts 43°
2026-05-07 17:26 37.23594 -3.47183 26649 ft 488 kts 43°
2026-05-07 17:26 37.25789 -3.43908 27015 ft 494 kts 53°
2026-05-07 17:26 37.27584 -3.40277 27401 ft 497 kts 58°
2026-05-07 17:26 37.29325 -3.36506 27706 ft 501 kts 59°
2026-05-07 17:27 37.31078 -3.32642 28014 ft 504 kts 59°
2026-05-07 17:27 37.32230 -3.30101 28233 ft 506 kts 59°
2026-05-07 17:27 37.33983 -3.26257 28577 ft 508 kts 58°
2026-05-07 17:27 37.36330 -3.21158 29167 ft 507 kts 58°
2026-05-07 17:28 37.38105 -3.17328 29691 ft 505 kts 58°
2026-05-07 17:28 37.39278 -3.14808 30012 ft 504 kts 58°
2026-05-07 17:28 37.41050 -3.11004 30355 ft 505 kts 58°
2026-05-07 17:28 37.42830 -3.07182 30675 ft 506 kts 58°
2026-05-07 17:29 37.44609 -3.03361 30948 ft 507 kts 58°
2026-05-07 17:29 37.46399 -2.99510 30928 ft 509 kts 58°
2026-05-07 17:29 37.49945 -2.91854 30936 ft 502 kts 58°
2026-05-07 17:30 37.53444 -2.84281 30941 ft 498 kts 58°
2026-05-07 17:30 37.56924 -2.76735 30944 ft 497 kts 58°
2026-05-07 17:31 37.60412 -2.69154 30956 ft 502 kts 58°
2026-05-07 17:31 37.63902 -2.61551 30948 ft 504 kts 58°
2026-05-07 17:32 37.67416 -2.53875 30950 ft 505 kts 57°
2026-05-07 17:32 37.70925 -2.46191 30948 ft 505 kts 57°
2026-05-07 17:33 37.74389 -2.38584 30947 ft 495 kts 57°
2026-05-07 17:33 37.77834 -2.31009 30953 ft 499 kts 57°
2026-05-07 17:34 37.81299 -2.23373 30964 ft 501 kts 57°
2026-05-07 17:34 37.84773 -2.15696 30961 ft 503 kts 57°
2026-05-07 17:35 37.88248 -2.07996 30956 ft 503 kts 57°
2026-05-07 17:35 37.91691 -2.00349 30967 ft 502 kts 57°
2026-05-07 17:36 37.95150 -1.92649 30952 ft 501 kts 57°
2026-05-07 17:36 37.98571 -1.85014 30960 ft 499 kts 57°
2026-05-07 17:37 38.01995 -1.77354 30955 ft 498 kts 57°
2026-05-07 17:37 38.05401 -1.69721 30961 ft 497 kts 57°
2026-05-07 17:38 38.08804 -1.62074 30967 ft 497 kts 56°
2026-05-07 17:38 38.12199 -1.54426 30960 ft 497 kts 57°
2026-05-07 17:39 38.15591 -1.46768 30961 ft 498 kts 56°
2026-05-07 17:39 38.18985 -1.39090 30953 ft 499 kts 56°
2026-05-07 17:40 38.22378 -1.31395 30952 ft 499 kts 56°
2026-05-07 17:40 38.25749 -1.23724 30962 ft 500 kts 56°
2026-05-07 17:41 38.29139 -1.15992 30949 ft 500 kts 56°
2026-05-07 17:41 38.32528 -1.08246 30944 ft 501 kts 56°
2026-05-07 17:42 38.35910 -1.00496 30948 ft 500 kts 56°
2026-05-07 17:42 38.39230 -0.92871 30959 ft 500 kts 56°
2026-05-07 17:43 38.42585 -0.85148 30940 ft 499 kts 56°
2026-05-07 17:43 38.45939 -0.77408 30961 ft 498 kts 56°
2026-05-07 17:44 38.49283 -0.69671 30949 ft 497 kts 56°
2026-05-07 17:44 38.52618 -0.61936 30946 ft 497 kts 57°
2026-05-07 17:45 38.55927 -0.54244 30928 ft 496 kts 57°
2026-05-07 17:45 38.59243 -0.46518 30913 ft 495 kts 57°
2026-05-07 17:46 38.62551 -0.38787 30910 ft 494 kts 57°
2026-05-07 17:46 38.65848 -0.31066 30907 ft 494 kts 58°
2026-05-07 17:47 38.69126 -0.23369 30908 ft 490 kts 57°
2026-05-07 17:47 38.72375 -0.15722 30910 ft 486 kts 58°
2026-05-07 17:48 38.75581 -0.08157 30933 ft 481 kts 58°
2026-05-07 17:48 38.78747 -0.00673 30939 ft 480 kts 58°
2026-05-07 17:49 38.81929 0.06868 30954 ft 480 kts 59°
2026-05-07 17:49 38.85097 0.14396 30943 ft 476 kts 59°
2026-05-07 17:50 38.88220 0.21837 30952 ft 472 kts 60°
2026-05-07 17:50 38.91311 0.29217 30950 ft 471 kts 60°
2026-05-07 17:51 38.94349 0.36490 30931 ft 448 kts 61°
2026-05-07 17:51 38.95797 0.39964 30926 ft 434 kts 61°
2026-05-07 17:51 38.97196 0.43325 30930 ft 420 kts 61°
2026-05-07 17:52 38.98553 0.46585 30924 ft 407 kts 61°
2026-05-07 17:52 38.99874 0.49761 30680 ft 400 kts 62°
2026-05-07 17:52 39.01205 0.52963 29654 ft 414 kts 63°
2026-05-07 17:52 39.02596 0.56318 28259 ft 435 kts 63°
2026-05-07 17:53 39.04031 0.59781 27499 ft 439 kts 63°
2026-05-07 17:53 39.05457 0.63225 27109 ft 433 kts 63°
2026-05-07 17:53 39.06863 0.66622 26747 ft 426 kts 64°
2026-05-07 17:53 39.08249 0.69973 26308 ft 422 kts 64°
2026-05-07 17:54 39.09622 0.73300 25831 ft 419 kts 64°
2026-05-07 17:54 39.10983 0.76601 25370 ft 416 kts 64°
2026-05-07 17:54 39.12335 0.79884 24934 ft 412 kts 64°
2026-05-07 17:54 39.13673 0.83139 24500 ft 409 kts 65°
2026-05-07 17:55 39.14985 0.86331 24063 ft 407 kts 65°
2026-05-07 17:55 39.16305 0.89548 23631 ft 404 kts 65°
2026-05-07 17:55 39.17613 0.92739 23141 ft 402 kts 64°
2026-05-07 17:55 39.18912 0.95911 22652 ft 399 kts 64°
2026-05-07 17:56 39.20199 0.99057 22184 ft 396 kts 64°
2026-05-07 17:56 39.21478 1.02186 21722 ft 393 kts 64°
2026-05-07 17:56 39.22747 1.05295 21237 ft 390 kts 64°
2026-05-07 17:56 39.24007 1.08385 20791 ft 388 kts 64°
2026-05-07 17:57 39.25257 1.11453 20346 ft 385 kts 64°
2026-05-07 17:57 39.26081 1.13476 20053 ft 384 kts 64°
2026-05-07 17:57 39.27733 1.17539 19495 ft 380 kts 64°
2026-05-07 17:57 39.28957 1.20552 19080 ft 377 kts 64°
2026-05-07 17:58 39.30174 1.23549 18652 ft 375 kts 64°
2026-05-07 17:58 39.31379 1.26522 18242 ft 373 kts 64°
2026-05-07 17:58 39.32577 1.29480 17801 ft 370 kts 64°
2026-05-07 17:58 39.33764 1.32412 17386 ft 366 kts 64°
2026-05-07 17:59 39.34937 1.35312 16995 ft 362 kts 64°
2026-05-07 17:59 39.36085 1.38154 16596 ft 359 kts 64°
2026-05-07 17:59 39.37196 1.41025 16186 ft 355 kts 70°
2026-05-07 17:59 39.37790 1.44089 15774 ft 349 kts 82°
2026-05-07 18:00 39.38184 1.47171 15357 ft 347 kts 83°
2026-05-07 18:00 39.38555 1.50243 14936 ft 345 kts 83°
2026-05-07 18:00 39.38927 1.53301 14549 ft 342 kts 82°
2026-05-07 18:00 39.39303 1.56330 14146 ft 340 kts 82°
2026-05-07 18:01 39.39685 1.59338 13754 ft 337 kts 82°
2026-05-07 18:01 39.40068 1.62321 13328 ft 335 kts 82°
2026-05-07 18:01 39.40452 1.65286 12959 ft 331 kts 81°
2026-05-07 18:01 39.40828 1.68183 12916 ft 322 kts 81°
2026-05-07 18:02 39.41545 1.73703 12902 ft 298 kts 81°
2026-05-07 18:02 39.41881 1.76289 12900 ft 285 kts 82°
2026-05-07 18:02 39.42202 1.78765 12902 ft 272 kts 82°
2026-05-07 18:03 39.42503 1.81092 12900 ft 260 kts 82°
2026-05-07 18:03 39.42793 1.83337 12905 ft 247 kts 82°
2026-05-07 18:03 39.43072 1.85512 12598 ft 248 kts 82°
2026-05-07 18:03 39.43364 1.87793 11637 ft 268 kts 81°
2026-05-07 18:04 39.43681 1.90264 10676 ft 287 kts 80°
2026-05-07 18:04 39.44009 1.92821 10174 ft 286 kts 80°
2026-05-07 18:04 39.44327 1.95301 9965 ft 273 kts 80°
2026-05-07 18:04 39.44628 1.97661 9868 ft 258 kts 80°
2026-05-07 18:05 39.44913 1.99899 9765 ft 246 kts 80°
2026-05-07 18:05 39.45183 2.02024 9594 ft 235 kts 79°
2026-05-07 18:05 39.45555 2.04076 9321 ft 234 kts 72°
2026-05-07 18:05 39.46076 2.06066 9100 ft 232 kts 70°
2026-05-07 18:06 39.46614 2.08027 8840 ft 231 kts 70°
2026-05-07 18:06 39.47149 2.09985 8586 ft 230 kts 70°
2026-05-07 18:06 39.47676 2.11928 8356 ft 228 kts 70°
2026-05-07 18:06 39.48196 2.13869 8109 ft 228 kts 70°
2026-05-07 18:07 39.48706 2.15783 7855 ft 227 kts 70°
2026-05-07 18:07 39.49219 2.17716 7619 ft 226 kts 70°
2026-05-07 18:07 39.49725 2.19635 7375 ft 225 kts 71°
2026-05-07 18:07 39.50231 2.21556 7126 ft 225 kts 71°
2026-05-07 18:08 39.50735 2.23473 6891 ft 224 kts 71°
2026-05-07 18:08 39.51235 2.25376 6663 ft 223 kts 71°
2026-05-07 18:08 39.51564 2.26636 6501 ft 223 kts 71°
2026-05-07 18:08 39.52158 2.28902 6236 ft 221 kts 71°
2026-05-07 18:09 39.52613 2.30798 5973 ft 221 kts 81°
2026-05-07 18:09 39.52415 2.32712 5760 ft 220 kts 115°
2026-05-07 18:09 39.51412 2.34136 5669 ft 215 kts 149°
2026-05-07 18:09 39.50005 2.34650 5618 ft 206 kts 169°
2026-05-07 18:10 39.48607 2.34847 5433 ft 201 kts 172°
2026-05-07 18:10 39.47219 2.35028 5255 ft 199 kts 171°
2026-05-07 18:10 39.45844 2.35200 5044 ft 198 kts 172°
2026-05-07 18:10 39.44460 2.35372 4760 ft 200 kts 172°
2026-05-07 18:11 39.43129 2.35767 4505 ft 195 kts 145°
2026-05-07 18:11 39.42473 2.36524 4300 ft 190 kts 120°
2026-05-07 18:11 39.42155 2.38681 4022 ft 185 kts 83°
2026-05-07 18:11 39.42286 2.40330 4018 ft 189 kts 82°
2026-05-07 18:12 39.42436 2.42024 4018 ft 190 kts 82°
2026-05-07 18:12 39.42630 2.43703 4007 ft 187 kts 79°
2026-05-07 18:12 39.42881 2.45352 3979 ft 185 kts 78°
2026-05-07 18:12 39.43323 2.46866 3984 ft 178 kts 58°
2026-05-07 18:13 39.43970 2.48228 3981 ft 179 kts 60°
2026-05-07 18:13 39.44392 2.49171 3918 ft 186 kts 60°
2026-05-07 18:13 39.45067 2.50639 3663 ft 190 kts 59°
2026-05-07 18:13 39.45753 2.52105 3400 ft 189 kts 59°
2026-05-07 18:14 39.46434 2.53552 3164 ft 186 kts 59°
2026-05-07 18:14 39.47105 2.54972 2908 ft 183 kts 59°
2026-05-07 18:14 39.47762 2.56361 2667 ft 178 kts 60°
2026-05-07 18:14 39.48393 2.57698 2428 ft 170 kts 59°
2026-05-07 18:15 39.48997 2.58977 2229 ft 163 kts 59°
2026-05-07 18:15 39.49561 2.60169 1980 ft 150 kts 58°
2026-05-07 18:15 39.50083 2.61272 1783 ft 134 kts 59°
2026-05-07 18:15 39.50548 2.62257 1649 ft 130 kts 59°
2026-05-07 18:16 39.51028 2.63270 1471 ft 135 kts 59°
2026-05-07 18:16 39.51517 2.64304 1265 ft 132 kts 59°
2026-05-07 18:16 39.51991 2.65306 1064 ft 126 kts 58°
2026-05-07 18:16 39.52437 2.66247 912 ft 120 kts 59°
2026-05-07 18:17 39.52870 2.67176 670 ft 120 kts 57°
2026-05-07 18:17 39.53311 2.68095 534 ft 120 kts 57°
2026-05-07 18:17 39.53751 2.69023 421 ft 121 kts 58°
2026-05-07 18:17 39.54194 2.69970 253 ft 124 kts 58°
2026-05-07 18:18 39.54647 2.70931 91 ft 126 kts 59°
2026-05-07 18:18 39.55090 2.71864 28 ft 110 kts 58°
2026-05-07 18:18 39.55427 2.72575 23 ft 78 kts 59°
2026-05-07 18:18 39.55686 2.73121 25 ft 60 kts 61°
2026-05-07 18:19 39.55713 2.73435 24 ft 12 kts 91°
2026-05-07 18:19 39.55713 2.73455 24 ft 0 kts 91°
2026-05-07 18:20 39.55710 2.73483 25 ft 7 kts 101°
2026-05-07 18:21 39.55672 2.73517 26 ft 7 kts 188°
2026-05-07 18:21 39.55623 2.73501 26 ft 8 kts 168°
2026-05-07 18:21 39.55568 2.73540 28 ft 10 kts 149°
2026-05-07 18:21 39.55510 2.73584 30 ft 10 kts 148°
2026-05-07 18:22 39.55455 2.73629 32 ft 9 kts 148°
2026-05-07 18:22 39.55419 2.73658 33 ft 9 kts 148°
2026-05-07 18:22 39.55348 2.73715 34 ft 9 kts 148°
2026-05-07 18:22 39.55292 2.73760 35 ft 11 kts 148°
2026-05-07 18:23 39.55213 2.73823 35 ft 14 kts 149°
2026-05-07 18:23 39.55130 2.73888 35 ft 14 kts 149°
2026-05-07 18:23 39.55051 2.73950 35 ft 13 kts 149°
2026-05-07 18:23 39.54974 2.74010 35 ft 13 kts 149°
2026-05-07 18:24 39.54899 2.74069 35 ft 12 kts 149°
2026-05-07 18:24 39.54825 2.74122 35 ft 12 kts 166°
2026-05-07 18:24 39.54757 2.74065 35 ft 14 kts 239°
2026-05-07 18:24 39.54708 2.73962 35 ft 13 kts 239°
2026-05-07 18:25 39.54662 2.73862 35 ft 13 kts 239°
2026-05-07 18:25 39.54617 2.73762 35 ft 13 kts 239°
2026-05-07 18:25 39.54558 2.73635 35 ft 18 kts 238°
2026-05-07 18:25 39.54493 2.73499 35 ft 18 kts 238°
2026-05-07 18:26 39.54430 2.73366 35 ft 17 kts 238°
2026-05-07 18:26 39.54385 2.73243 35 ft 14 kts 279°
2026-05-07 18:26 39.54446 2.73184 35 ft 8 kts 342°
2026-05-07 18:26 39.54474 2.73173 34 ft 2 kts 343°
2026-05-07 18:27 39.54482 2.73170 35 ft 1 kts 343°
2026-05-07 18:27 39.54483 2.73169 35 ft 0 kts 343°